Starlink 31480

operational
NORAD ID: 59306 Int'l Des: 2024-056 Owner: SPXS Country: US Constellation: starlink
LEOCIRCULAR

About Starlink 31480

Description loading...

Live Position

Loading 3D Globe...

Upcoming Passes

Altitude History

Altitude vs Time

uPlot chart will show altitude changes over time

Two-Line Element Set

1 59306U 24056L 25259.02850970 -.00000002 00000-0 94387-5 0 9993
2 59306 43.0056 136.9742 0000946 298.6737 61.4019 15.27568317 84442
Epoch: Sep 16, 2025 • Age: 17 hours

Current Status

Altitude 485.6 km
Velocity 7.62 km/s
Sub-Earth Point -15.46°S, 147.85°W
Launch Date Mar 24, 2024
Age 1.4 years
Type internet

Technical Details

Classification Payload
Mass 730.00 kg
Dry Mass 700.00 kg
Total Mass 730.00 kg
Length 0.30 m
Diameter 4.10 m
Span 29.00 m
Shape Box + pan
Manufacturer SPXS
Bus Type Starlink V2M
Phase Status In Orbit
Owner/State SPXS/US

Large Constellations

Loading constellations...